FW0784 Weather Reports


Display with metric or nautical units.
time (UTC)temp
F
wind
direction
speed
MPH
gust
MPH
rain 1hr
in
rain 24hr
in
rain mn
in
humidity
%
barometer
mb
20210731174552 90 70 8.0 17.0 0.00 0.00 0.00 57 1014.8
20210731173054 89 31 4.0 19.0 0.00 0.00 0.00 58 1014.8
20210731171608 88 359 3.0 14.0 0.00 0.00 0.00 63 1014.8
20210731170146 89 51 0.0 13.0 0.00 0.00 0.00 62 1014.7
20210731164639 88 49 0.0 1.0 0.00 0.00 0.00 64 1014.7
20210731163110 87 58 0.0 1.0 0.00 0.00 0.00 66 1014.6
20210731161556 86 117 0.0 1.0 0.00 0.00 0.00 68 1014.3
20210731160136 86 168 0.0 4.0 0.00 0.00 0.00 66 1014.2
20210731154537 85 87 0.0 2.0 0.00 0.00 0.00 67 1014.2
20210731153047 85 55 0.0 1.0 0.00 0.00 0.00 68 1014.2
20210731151542 84 36 0.0 1.0 0.00 0.00 0.00 70 1014.0
20210731150048 83 41 0.0 3.0 0.00 0.00 0.00 70 1014.1
20210731144557 82 125 0.0 0.0 0.00 0.00 0.00 72 1014.1
20210731143104 81 124 0.0 0.0 0.00 0.00 0.00 74 1014.1
20210731141554 80 48 0.0 0.0 0.00 0.00 0.00 74 1014.2
20210731140029 80 100 0.0 0.0 0.00 0.00 0.00 74 1014.3
20210731134530 80 43 0.0 6.0 0.00 0.00 0.00 74 1014.4
20210731133024 79 32 0.0 0.0 0.00 0.00 0.00 74 1014.3
20210731131515 78 33 0.0 0.0 0.00 0.00 0.00 76 1014.3
20210731130015 78 33 0.0 0.0 0.00 0.00 0.00 77 1014.2
20210731124518 77 33 0.0 0.0 0.00 0.00 0.00 77 1014.0
20210731123014 77 32 0.0 0.0 0.00 0.00 0.00 78 1013.7
20210731121509 76 32 0.0 0.0 0.00 0.00 0.00 78 1013.5
20210731120038 76 31 0.0 0.0 0.00 0.00 0.00 78 1013.3
20210731114507 76 41 0.0 1.0 0.00 0.00 0.00 78 1013.3
20210731113041 76 20 0.0 1.0 0.00 0.00 0.00 79 1013.2
20210731111501 77 8 0.0 1.0 0.00 0.00 0.00 76 1013.3
20210731110151 78 250 0.0 0.0 0.00 0.00 0.00 74 1012.7
20210731104655 78 249 0.0 3.0 0.00 0.00 0.00 73 1012.4
20210731103128 79 250 0.0 0.0 0.00 0.00 0.00 73 1012.0
20210731101731 79 249 0.0 0.0 0.00 0.00 0.00 74 1011.9
20210731100145 78 221 0.0 0.0 0.00 0.00 0.00 75 1012.0
20210731094610 78 187 0.0 0.0 0.00 0.00 0.00 75 1012.2
20210731093146 79 179 0.0 0.0 0.00 0.00 0.00 74 1012.3
20210731091623 79 175 0.0 0.0 0.00 0.00 0.00 73 1012.5
20210731090112 80 189 0.0 0.0 0.00 0.00 0.00 72 1012.4
20210731084637 80 185 0.0 0.0 0.00 0.00 0.00 72 1012.4
20210731083154 80 359 0.0 0.0 0.00 0.00 0.00 72 1012.2
20210731081623 80 177 0.0 0.0 0.00 0.00 0.00 72 1012.4
20210731080136 81 359 0.0 0.0 0.00 0.00 0.00 71 1012.1
20210731074627 81 198 0.0 0.0 0.00 0.00 0.00 70 1012.1
20210731073150 81 359 0.0 0.0 0.00 0.00 0.00 70 1012.1
20210731071620 81 359 0.0 0.0 0.00 0.00 0.00 69 1012.2
20210731070134 81 359 0.0 0.0 0.00 0.00 0.00 68 1012.3
20210731064609 81 359 0.0 0.0 0.00 0.00 0.00 66 1012.3
20210731063136 82 359 0.0 2.0 0.00 0.00 0.00 65 1012.5
20210731061614 83 183 0.0 0.0 0.00 0.00 0.00 63 1012.8
20210731060052 83 359 0.0 1.0 0.00 0.00 0.00 62 1013.0
20210731054652 83 359 0.0 0.0 0.00 0.00 0.00 62 1013.0
20210731053045 83 359 0.0 0.0 0.00 0.00 0.00 62 1013.1
20210731051559 82 359 0.0 1.0 0.00 0.00 0.00 61 1013.0
20210731050042 82 359 0.0 0.0 0.00 0.00 0.00 61 1012.6
20210731044539 81 203 0.0 0.0 0.00 0.00 0.00 60 1012.4
20210731043030 82 359 0.0 0.0 0.00 0.00 0.00 59 1012.4
20210731041558 82 193 0.0 0.0 0.00 0.00 0.00 58 1012.3
20210731040049 83 359 0.0 0.0 0.00 0.00 0.00 57 1012.4
20210731034536 84 359 0.0 3.0 0.00 0.00 0.00 56 1012.4
20210731033021 85 233 0.0 0.0 0.00 0.00 0.00 55 1012.5
20210731031615 85 359 0.0 0.0 0.00 0.00 0.00 55 1012.6
20210731030036 86 359 0.0 0.0 0.00 0.00 0.00 54 1012.6
20210731024520 87 359 0.0 0.0 0.00 0.00 0.00 53 1012.5
20210731023029 88 159 0.0 0.0 0.00 0.00 0.00 51 1012.4
20210731021538 89 359 0.0 0.0 0.00 0.00 0.00 50 1012.2
20210731020027 90 359 0.0 1.0 0.00 0.00 0.00 48 1011.8
20210731014525 91 226 0.0 4.0 0.00 0.00 0.00 46 1011.7
20210731013030 92 359 0.0 3.0 0.00 0.00 0.00 46 1011.8
20210731011612 93 359 0.0 8.0 0.00 0.00 0.00 45 1011.8
20210731010021 94 239 0.0 1.0 0.00 0.00 0.00 44 1011.9
20210731004529 95 359 0.0 3.0 0.00 0.00 0.00 44 1011.9
20210731003019 95 226 1.0 6.0 0.00 0.00 0.00 43 1011.9
20210731001521 96 239 0.0 7.0 0.00 0.00 0.00 42 1011.9
20210731000012 97 238 0.0 8.0 0.00 0.00 0.00 42 1012.0
20210730234524 97 359 0.0 6.0 0.00 0.00 0.00 40 1012.1
20210730233012 98 231 1.0 7.0 0.00 0.00 0.00 39 1012.3
20210730231521 99 359 0.0 9.0 0.00 0.00 0.00 38 1012.4
20210730230019 100 183 0.0 2.0 0.00 0.00 0.00 36 1012.5
20210730224507 99 185 0.0 2.0 0.00 0.00 0.00 35 1012.7
20210730223005 100 226 0.0 1.0 0.00 0.00 0.00 34 1012.8
20210730221504 99 251 0.0 0.0 0.00 0.00 0.00 35 1012.8
20210730220008 100 233 0.0 6.0 0.00 0.00 0.00 35 1012.9
20210730214505 99 236 0.0 11.0 0.00 0.00 0.00 34 1012.9
20210730213013 100 235 1.0 8.0 0.00 0.00 0.00 32 1012.8
20210730211521 100 242 3.0 10.0 0.00 0.00 0.00 33 1012.8
20210730210005 101 237 0.0 10.0 0.00 0.00 0.00 32 1012.9
20210730204643 100 224 0.0 10.0 0.00 0.00 0.00 33 1013.0
20210730203212 100 248 0.0 7.0 0.00 0.00 0.00 35 1013.1
20210730201656 100 239 1.0 12.0 0.00 0.00 0.00 35 1013.2
20210730200136 100 278 0.0 8.0 0.00 0.00 0.00 36 1013.3
20210730194624 99 236 0.0 7.0 0.00 0.00 0.00 36 1013.4
20210730193211 99 262 0.0 7.0 0.00 0.00 0.00 35 1013.4
20210730191629 99 251 0.0 11.0 0.00 0.00 0.00 35 1013.7
20210730190059 101 209 0.0 0.0 0.00 0.00 0.00 33 1013.9
20210730184629 99 226 0.0 6.0 0.00 0.00 0.00 35 1014.0
20210730183109 98 258 0.0 2.0 0.00 0.00 0.00 38 1014.3
20210730181641 98 235 1.0 9.0 0.00 0.00 0.00 39 1014.5
20210730180123 98 359 0.0 5.0 0.00 0.00 0.00 42 1014.5